DELTA 1 DEB, 7045

Orbit data source: Space-Track

DELTA 1 DEB, 7045 is space debris in SSO originally from a launch on Tue, 06 Nov 1973 UTC launched from the Air Force Western Test Range (AFWTR). Debris objects in space refer to the collection of defunct objects orbiting the Earth. Examples of debris include non-operational satellites, rocket bodies, and fragments generated from explosions, collisions, or faulty payload assembly.

Loading next visibility...
Identifier
7045, 1973-086AM
Orbit
SSO
Last TLE update
10 hours ago
Origin
Manufacturer
Unknown
Mission
Spacecraft
Bus & Motor
Unknown
Mass
Unknown
Launch date (UTC)
1973-11-06 (52 years ago)
Launch vehicle
Unknown
Launch site
Air Force Western Test Range (AFWTR)
Object type
Payload
Rocket body
Debris
Shape & HBR
Unknown
Radar Cross Section
Medium (>0.1 m² and <1 m²)

Expand to show TLE details & history

TLE from 10 hours ago
0 DELTA 1 DEB
1  7045U 73086AM  25182.03013920 -.00000030  00000-0  14868-3 0  9990
2  7045 102.6114 193.4131 0076126 244.6520 139.4599 12.26126171304657
Epoch: 2025-07-01T00:43Z
TLE epoch observation values (Epoch: 2025-07-01T00:43:24.026Z)
Latitude
24.06559°
Longitude
-102.4753°
Altitude
1,614.675 km
Speed
7.045 km/s
True Right ascension
12h 30m 49s
True Declination
23° 57' 05"
Sunlit
Object was in daylight at epoch
Visualization orbit readout
Latitude
-16.07399°
Longitude
-92.68837°
Altitude
1,581.754 km
Speed
7.073 km/s
Apparent Right ascension
11h 55m 28s
Apparent Declination
-28° 35' 02"
Sunlit
Object is in daylight
Visualization observer readout
Local Sidereal Time
21:55:48
Azimuth
285.495° WNW
Elevation
-62.969°
Doppler factor
1
Orbital elements
Apogee altitude
1,624.057 km
Perigee altitude
1,503.142 km
Semi-major axis
7,941.736 km
Eccentricity
0.00761
Inclination
102.6114°
RAAN
193.4131°
Arg. of periapsis
244.652°
True anomaly
Unknown
Mean anomaly
139.4599°
Eccentric anomaly
Unknown
Mean motion
3.06669 °/min
Orbital period
117.39 mins
BSTAR
0.00014868
Loading maneuver chart data...
Loading SW <> Apogee altitude chart data...
Loading historical data...
Loading historical data...
Loading historical data...
Loading historical data...
Loading historical data...
Loading historical data...
Loading historical data...

DELTA 1 DEB Visibility forecast

Observer location: undefined°, undefined°

Span
Click to sort rows by Start time (UTC) header in descending order
Start Az.
Max El. time (UTC)
Max El. Az.
Max El.
End time (UTC)
End Az.
15 mins2025-07-01 12:59:22.904Z32.154° NE2025-07-01 13:07:22.904Z108.845° ESE35.966°2025-07-01 13:14:22.904Z170.573° S
14 mins2025-07-01 14:55:22.904Z1.695° NNE2025-07-01 15:02:22.904Z292.667° NW34.283°2025-07-01 15:09:22.904Z235.059° WSW
9 mins2025-07-01 22:21:22.904Z78.235° E2025-07-01 22:25:22.904Z47.981° ENE18.619°2025-07-01 22:30:22.904Z11.509° NNE
16 mins2025-07-02 00:11:22.904Z150.54° SSE2025-07-02 00:19:22.904Z47.445° ENE44.136°2025-07-02 00:27:22.904Z344.883° N
12 mins2025-07-02 02:09:22.904Z222.49° SW2025-07-02 02:14:22.904Z261.275° W22.221°2025-07-02 02:21:22.904Z314.342° NW
|